DW8016 Weather Reports


time (UTC)temp
C
wind
direction
speed
KPH
gust
KPH
rain 1hr
cm
rain 24hr
cm
rain mn
cm
humidity
%
barometer
mb
20260831025745 22 234 0.0 0.0 0.00 2.82 2.79 93 1018.5
20260831024726 22 234 0.0 0.0 0.00 2.82 2.79 93 1018.5
20260831023700 22 234 0.0 0.0 0.00 2.82 2.79 93 1018.7
20260831022647 22 234 0.0 0.0 0.00 2.82 2.79 93 1018.7
20260831021651 22 234 0.0 0.0 0.00 2.82 2.79 93 1018.8
20260831020653 22 234 0.0 0.0 0.00 2.82 2.79 93 1018.7
20260831015704 22 234 0.0 0.0 0.00 2.82 2.79 92 1018.8
20260831014633 22 234 0.0 0.0 0.00 2.82 2.79 92 1018.9
20260831013631 22 234 0.0 0.0 0.00 2.82 2.79 92 1018.9
20260831012629 22 234 0.0 0.0 0.00 2.82 2.79 93 1018.8
20260831011557 22 234 0.0 0.0 0.00 2.82 2.79 92 1018.7
20260831010548 22 234 0.0 0.0 0.00 2.82 2.79 92 1018.6
20260831003309 22 165 0.0 4.8 1.63 2.72 2.74 90 1018.3
20260831002234 23 238 0.0 0.0 4.27 2.26 2.26 87 1019.1
20260831001222 23 238 1.6 8.0 5.97 1.42 1.55 86 1019.8
20260831000203 25 304 4.8 16.1 6.43 0.81 0.86 82 1020.0
20260830235142 27 304 6.4 16.1 0.00 0.00 0.00 74 1019.8
20260830234128 28 312 3.2 14.5 0.00 0.00 0.00 71 1018.9
20260830233113 28 202 3.2 16.1 0.00 0.00 0.00 70 1018.0
20260830232116 28 190 4.8 16.1 0.00 0.00 0.00 68 1017.9
20260830230009 29 194 3.2 12.9 0.00 0.00 0.00 67 1018.0
20260830224945 29 176 0.0 8.0 0.00 0.00 0.00 66 1018.0
20260830222829 30 165 3.2 12.9 0.00 0.00 0.00 64 1018.0
20260830220653 30 195 3.2 11.3 0.00 0.00 0.00 62 1017.7
20260830215646 30 216 4.8 12.9 0.00 0.00 0.00 61 1017.5
20260830214702 31 178 4.8 12.9 0.00 0.00 0.00 61 1017.6
20260830213708 31 167 3.2 11.3 0.00 0.00 0.00 60 1017.6
20260830212722 31 238 1.6 11.3 0.00 0.00 0.00 60 1017.7
20260830211725 31 185 1.6 9.7 0.00 0.00 0.00 60 1017.6
20260830210748 31 211 1.6 8.0 0.00 0.00 0.00 60 1017.6
20260830205730 31 226 0.0 3.2 0.00 0.00 0.00 58 1017.6
20260830204720 32 200 1.6 14.5 0.00 0.00 0.00 57 1017.6
20260830203719 32 195 4.8 14.5 0.00 0.00 0.00 55 1017.8
20260830202727 32 225 3.2 11.3 0.00 0.00 0.00 54 1017.8
20260830201735 33 277 3.2 11.3 0.00 0.00 0.00 52 1018.0
20260830194512 32 289 4.8 16.1 0.00 0.00 0.00 54 1017.9
20260830193506 31 237 3.2 14.5 0.00 0.00 0.00 55 1018.1
20260830192514 31 234 8.0 14.5 0.00 0.00 0.00 54 1018.2
20260830190330 32 243 4.8 17.7 0.00 0.00 0.00 55 1018.6
20260830183142 32 278 6.4 17.7 0.00 0.00 0.00 57 1019.3
20260830182135 31 246 6.4 17.7 0.00 0.00 0.00 57 1019.5
20260830181159 31 254 3.2 14.5 0.00 0.00 0.00 62 1019.7
20260830180211 30 289 4.8 14.5 0.00 0.00 0.00 64 1019.9
20260830175202 30 246 1.6 9.7 0.00 0.00 0.00 63 1020.2
20260830174158 30 261 0.0 6.4 0.00 0.00 0.00 65 1020.2
20260830173131 30 254 3.2 14.5 0.00 0.00 0.00 63 1020.4
20260830171020 30 203 4.8 16.1 0.00 0.00 0.00 61 1020.6
20260830165954 31 188 3.2 16.1 0.00 0.00 0.00 61 1020.6
20260830164925 30 220 3.2 19.3 0.00 0.00 0.00 64 1020.7
20260830163939 30 254 8.0 19.3 0.00 0.00 0.00 65 1020.7
20260830162938 30 224 4.8 16.1 0.00 0.00 0.00 64 1020.9
20260830161920 29 236 4.8 16.1 0.00 0.00 0.00 68 1021.0
20260830160920 28 172 4.8 16.1 0.00 0.00 0.00 68 1021.1
20260830155910 29 184 6.4 16.1 0.00 0.00 0.00 65 1021.2
20260830154932 29 289 3.2 14.5 0.00 0.00 0.00 67 1021.3
20260830153903 28 262 3.2 14.5 0.00 0.00 0.00 70 1021.3
20260830152857 27 196 4.8 16.1 0.00 0.00 0.00 73 1021.4
20260830151915 27 281 4.8 16.1 0.00 0.00 0.00 73 1021.3
20260830150902 26 246 4.8 16.1 0.00 0.00 0.00 77 1021.3
20260830145907 26 260 1.6 16.1 0.00 0.00 0.00 78 1021.4
20260830144913 26 230 3.2 11.3 0.00 0.00 0.00 79 1021.3
20260830142726 25 178 3.2 12.9 0.00 0.00 0.00 82 1021.3
20260830141715 25 186 1.6 16.1 0.00 0.00 0.00 83 1021.3
20260830140652 25 212 3.2 16.1 0.00 0.00 0.00 84 1021.3
20260830135701 24 169 3.2 12.9 0.00 0.00 0.00 85 1021.4
20260830134707 24 290 3.2 12.9 0.00 0.00 0.00 85 1021.6
20260830133647 24 205 3.2 12.9 0.00 0.00 0.00 85 1021.7
20260830132642 24 267 1.6 12.9 0.00 0.00 0.00 86 1021.8
20260830131658 24 218 3.2 12.9 0.00 0.00 0.00 86 1021.9
20260830130705 23 175 1.6 11.3 0.00 0.00 0.00 86 1021.9
20260830125650 23 169 0.0 17.7 0.00 0.00 0.00 86 1022.1
20260830124625 23 173 3.2 17.7 0.00 0.00 0.00 86 1022.1
20260830123618 23 179 1.6 11.3 0.00 0.00 0.00 87 1022.1
20260830122619 23 207 1.6 12.9 0.00 0.00 0.00 87 1022.1
20260830121544 23 217 3.2 12.9 0.00 0.00 0.00 87 1022.1
20260830120535 23 167 3.2 12.9 0.00 0.00 0.00 88 1022.0
20260830115548 23 204 3.2 12.9 0.00 0.00 0.00 88 1022.0
20260830114539 23 198 1.6 12.9 0.00 0.00 0.00 88 1022.0
20260830113521 23 207 3.2 9.7 0.00 0.00 0.00 88 1022.1
20260830112446 23 234 1.6 9.7 0.00 0.00 0.00 88 1022.1
20260830111422 23 230 1.6 9.7 0.00 0.00 0.00 88 1022.2
20260830110355 23 191 0.0 17.7 0.00 0.00 0.00 88 1022.2
20260830105335 23 263 1.6 17.7 0.00 0.00 0.00 88 1022.3
20260830104302 23 190 1.6 11.3 0.00 0.00 0.00 88 1022.1
20260830103253 23 184 3.2 11.3 0.00 0.00 0.00 88 1022.0
20260830102223 23 173 0.0 9.7 0.00 0.00 0.00 88 1021.9
20260830100127 23 262 0.0 0.0 0.00 0.00 0.00 88 1021.9
20260830095124 23 191 0.0 1.6 0.00 0.00 0.00 88 1021.9
20260830093029 23 246 0.0 0.0 0.00 0.00 0.00 87 1021.9
20260830092011 23 194 0.0 0.0 0.00 0.00 0.00 87 1021.9
20260830090953 23 226 0.0 4.8 0.00 0.00 0.00 87 1021.8
20260830085936 23 188 0.0 8.0 0.00 0.00 0.00 87 1021.7
20260830083721 23 170 0.0 6.4 0.00 0.00 0.00 87 1021.8
20260830082726 23 150 0.0 6.4 0.00 0.00 0.00 86 1021.9
20260830081704 23 213 0.0 6.4 0.00 0.00 0.00 86 1021.9
20260830080646 23 194 0.0 0.0 0.00 0.00 0.00 85 1021.9
20260830075635 22 203 1.6 9.7 0.00 0.00 0.00 85 1021.9
20260830073514 22 181 1.6 11.3 0.00 0.00 0.00 83 1021.9
20260830070228 23 185 0.0 6.4 0.00 0.00 0.00 79 1022.1
20260830064040 23 172 0.0 4.8 0.00 0.00 0.00 76 1022.1
20260830063019 23 195 0.0 4.8 0.00 0.00 0.00 75 1022.2
20260830062040 23 195 0.0 0.0 0.00 0.00 0.00 75 1022.4
20260830061033 23 180 0.0 4.8 0.00 0.00 0.00 74 1022.5
20260830054859 23 180 0.0 4.8 0.00 0.00 0.00 73 1022.7
20260830053826 23 180 0.0 1.6 0.00 0.00 0.00 73 1022.6
20260830052809 23 180 0.0 6.4 0.00 0.00 0.00 72 1022.7
20260830050621 23 184 0.0 0.0 0.00 0.00 0.00 72 1022.6
20260830045639 23 184 0.0 8.0 0.00 0.00 0.00 71 1022.5
20260830044637 23 175 0.0 3.2 0.00 0.00 0.00 72 1022.4
20260830043626 23 175 0.0 3.2 0.00 0.00 0.00 71 1022.5
20260830042638 23 175 0.0 1.6 0.00 0.00 0.00 71 1022.4
20260830040500 23 175 0.0 1.6 0.00 0.00 0.00 72 1022.2
20260830035452 22 175 0.0 1.6 0.00 0.00 0.00 73 1022.2
20260830032259 22 175 0.0 0.0 0.00 0.00 0.00 75 1022.2
20260830031237 22 175 0.0 0.0 0.00 0.00 0.00 74 1022.2